Location: Gisborne
(38.6530°S, 178.0040°E)
Time: 14:41:43
(UTC+12:00)

Cosmos 1869 - Pass Details

Date: 24 January 2019
Orbit: 537 x 547 km, 82.5° (Epoch: 21 April)

Event Time Altitude Azimuth Distance (km) Brightness Sun altitude
Rises 21:02:04 0° 6° (N) 2,708 6.5 -6.4°
Reaches altitude 10° 21:04:15 10° 10° (N) 1,823 5.6 -6.8°
Maximum altitude 21:08:09 51° 87° (E) 700 3.5 -7.4°
Drops below altitude 10° 21:12:06 10° 162° (SSE) 1,847 6.2 -8.1°
Sets 21:14:19 0° 167° (SSE) 2,748 7.2 -8.4°
